DELTA 1 DEB, 10645

Orbit data source: Space-Track

DELTA 1 DEB, 10645 is space debris in LEO originally from a launch on Thu, 29 Jul 1976 UTC launched from the Air Force Western Test Range (AFWTR). Debris objects in space refer to the collection of defunct objects orbiting the Earth. Examples of debris include non-operational satellites, rocket bodies, and fragments generated from explosions, collisions, or faulty payload assembly.

Loading next visibility...
Identifier
10645, 1976-077F
Orbit
LEO
Country
Flag of USUS
Related business
Manufacturer
Unknown
Mission
Spacecraft
Bus & Motor
Unknown
Mass
Unknown
Launch date (UTC)
1976-07-29 (50 years ago)
Launch vehicle
Unknown
Launch site
Air Force Western Test Range (AFWTR)
Object type
Payload
Rocket body
Debris
Shape & HBR
Unknown shape, 0.2 m
Radar Cross Section
Medium (>0.1 m² and <1 m²)

Expand to show TLE details & history
Last TLE update: 2 days ago

TLE from 2 days ago
0 DELTA 1 DEB
1 10645U 76077F   26263.63429051  .00000326  00000-0  42663-2 0  9996
2 10645 102.3860 156.8878 0224451  53.2513  20.8983 11.99218791166133
Epoch: 2026-09-20T15:13Z
TLE epoch observation values (Epoch: 2026-09-20T15:13:22.700Z)
Latitude
70.78189°
Longitude
-109.80437°
Altitude
1,527.85 km
Speed
7.182 km/s
True Right ascension
07h 52m 15s
True Declination
70° 41' 07"
Sunlit
Object was in daylight at epoch
Visualization orbit readout
Latitude
Unknown
Longitude
Unknown
Altitude
Unknown
Speed
Unknown
Apparent Right ascension
Unknown
Apparent Declination
Unknown
Sunlit
N/A
Visualization observer readout
Local Sidereal Time
18:36:02
Azimuth
Unknown
Elevation
Unknown
Doppler factor
Unknown
Orbital elements
Apogee altitude
1,862.92 km
Perigee altitude
1,501.098 km
Semi-major axis
8,060.146 km
Eccentricity
0.02245
Inclination
102.386°
RAAN
156.8878°
Arg. of periapsis
53.2513°
True anomaly
21.84039°
Mean anomaly
20.8983°
Eccentric anomaly
21.36684°
Mean motion
2.99936 °/min
Orbital period
120.03 mins
BSTAR
0.0042663
Loading maneuver chart data...
Computing Atmospheric mass density...
Loading historical data...
Loading historical data...
Loading historical data...
Loading historical data...
Loading historical data...
Loading historical data...
Loading historical data...

Documentation

Showing up to 5 results
|